Location: Arborea
(39.7744°N, 8.5819°E)
Time: 11:27:29
(UTC+00:00)

Cosmos 1000 Rocket - Pass Details

Date: 04 June 2022
Orbit: 952 x 993 km, 82.9° (Epoch: 02 July)

Event Time Altitude Azimuth Distance (km) Brightness Sun altitude
Rises 02:33:00 0° 127° (SE) 3,689 7.6 -13.8°
Reaches altitude 10° 02:37:46 10° 94° (E) 2,740 7.4 -13.1°
Maximum altitude 02:39:26 11° 78° (ENE) 2,656 7.7 -12.9°
Drops below altitude 10° 02:41:06 10° 63° (ENE) 2,737 8.1 -12.7°
Sets 02:45:49 0° 31° (NNE) 3,681 9.2 -12.0°
